SL-8 R/B

Satellite information

Favourite Embed

Satellite Type and Status

ROCKET BODYIN ORBIT

Key statistics

Satellite SL-8 R/B at a glance.

Uptime

16952

Days in orbit

Revolutions

≈ 13.8

Per day

Orbit

LEO

Low Earth Orbit

Inclination

82.9

Latest

Satellite identification and parameters

Extended collection of information and parameters for SL-8 R/B.

Object identification

Identified? True

Debris? False

Object name: SL-8 R/B

International designator: 1979-030B

Object number (NORAD): 11327

Object ID (CCSDS): 11327

Country: COMMONWEALTH OF INDEPENDENT STATES (CIS)

Current information (Y/N): Y

RCS size: LARGE

Orbital parameters

Period: 104.561 minutes

Inclination: 82.9484 deg

SMA: 7352.041 km

Apoapsis: 995.091 km

Periapsis: 952.721 km

RAAN: 225.4805 deg

Eccentricy: 0.00288149

Argument of periapsis: 52.3966 deg

Mean anomaly: 1.3316 deg

Mean motion: 13.77180627 rev/day

Mean motion (dot): 0.00000022 rev/day2

B* drag term: 0.000006940616 1/REarth

Two-line elements (TLE)

Creation date: Sept. 7, 2025, 3:09 a.m.

Reference frame: TEME

Reference center: EARTH

Epoch: Sept. 6, 2025, 10:44 p.m. UTC

TLE line 0: 0 SL-8 R/B

TLE line 1: 1 11327U 79030B 25249.94787069 .00000022 00000-0 69406-5 0 9999

TLE line 2: 2 11327 82.9484 225.4805 0028815 52.3966 1.3316 13.77180627332309

Live tracking on map

Real-time ground track for satellite SL-8 R/B.

In-orbit conjunctions

A list of the most updated potential collisions computed for object SL-8 R/B.

Target Orbit TCA Probability of collision Miss distance Type
DELTA 1 DEB SSO 2025-02-15 03:03:15 0.0003197937 471.0 (m) DEBRIS
SL-16 DEB LEO 2024-08-22 23:23:57 0.0002331298 120.0 (m) DEBRIS

Associated space launch

Civilian navigation satellite equivalent to the purely military Parus

SL-8 R/B was lifted into orbit during the mission ‘Kosmos-3M | Tsikada 5’, on board a Kosmos-3M space rocket.

The launch took place on April 11, 1979, 9:51 p.m. from 132/1 (132L).

For more information about the launch, click the button.

Launch to space Kosmos-3M | Tsikada 5
Kosmos-3M | Tsikada 5

Agency: N/A

Status: Launch Successful

Launch date: April 11, 1979, 9:51 p.m. UTC

Rocket: Kosmos-3M

Launch pad: 132/1 (132L)

Location: Plesetsk Cosmodrome, Russian Federation

...

Latest news about this satellite

There are no fresh news available about this satellite. Check back as we update our databases every day.


Newsletter sign-up

Weekly statistics, charts and insights to help you stay on top of the space industry.